This demonstration page uses our WeatherBlox Daily Observations layout. Learn more.

Left ArrowRight Arrow

41.55636, -103.73856

Hourly Observations for October 24, 2021

Temp ( °F °C ) Dew Point ( °F °C ) Humidity (%) Winds ( mph kmh ) Pressure ( in mb ) Visibility ( mi km ) Precip ( " mm )
12:58 am 00:58 Clear 45 7.3 36 2.4 71 71 SW 5 7 29.72 1007 10 16 N/A
1:58 am 01:58 Clear 39 4.1 35 1.4 83 83 W 7 11 29.74 1007 10 16 N/A
2:58 am 02:58 Clear 42 5.5 34 1.1 74 74 WSW 7 11 29.72 1007 10 16 N/A
3:58 am 03:58 Clear 43 6.1 33 0.3 67 67 W 7 11 29.72 1007 10 16 N/A
4:58 am 04:58 Clear 41 4.8 31 -0.4 69 69 WNW 10 17 29.76 1008 10 16 N/A
5:58 am 05:58 Mostly Cloudy 42 5.7 31 -0.5 65 65 NW 10 17 29.77 1008 10 16 N/A
6:58 am 06:58 Mostly Clear 41 5.1 32 -0.1 69 69 WNW 13 20 29.83 1010 10 16 N/A
7:58 am 07:58 Mostly Cloudy 41 5 35 1.4 78 78 WNW 13 20 29.86 1011 10 16 N/A
8:58 am 08:58 Mostly Sunny 42 5.4 37 2.5 82 82 WNW 13 20 29.90 1013 10 16 N/A
9:58 am 09:58 Sunny 47 8.5 36 2.1 64 64 NW 20 31 29.88 1012 10 16 N/A
10:58 am 10:58 Sunny 50 9.8 31 -0.5 49 49 WNW 20 31 29.90 1012 10 16 N/A
11:58 am 11:58 Sunny 53 11.9 29 -1.6 39 39 NNW 21 33 29.90 1012 10 16 N/A
12:58 pm 12:58 Sunny 56 13.1 29 -1.8 36 36 NNW 18 30 29.88 1012 10 16 N/A
1:58 pm 13:58 Sunny 57 13.8 30 -1.1 36 36 NNW 15 24 29.88 1012 10 16 N/A
2:58 pm 14:58 Sunny 58 14.4 27 -2.9 30 30 NNW 16 26 29.86 1011 10 16 N/A
3:58 pm 15:58 Sunny 58 14.6 28 -2.2 32 32 N 12 19 29.87 1011 10 16 N/A
4:58 pm 16:58 Sunny 57 14 28 -2.3 33 33 N 8 13 29.88 1012 10 16 N/A
5:58 pm 17:58 Sunny 51 10.5 29 -1.9 42 42 NE 8 13 29.91 1013 10 16 N/A
6:58 pm 18:58 Clear 46 8 29 -1.6 51 51 ESE 9 15 29.94 1014 10 16 N/A
7:58 pm 19:58 Clear 47 8.4 29 -1.5 50 50 SSE 13 20 29.94 1014 10 16 N/A
8:58 pm 20:58 Clear 46 7.5 29 -1.6 53 53 SSE 14 22 29.95 1014 10 16 N/A
9:58 pm 21:58 Clear 45 7.2 30 -1 56 56 SSE 18 30 29.96 1015 10 16 N/A
10:58 pm 22:58 Clear 44 6.8 31 -0.7 59 59 SSE 17 28 29.97 1015 10 16 N/A
11:58 pm 23:58 Clear 44 6.4 31 -0.4 62 62 S 20 31 29.95 1014 10 16 N/A

Powered by AerisWeather